Location: Zagreb
(45.8000°N, 16.0000°E)
Time: 20:07:00
(UTC+02:00)

A-11 Canister half - Pass Details

Date: 15 August 2022
Orbit: 1524 x 1684 km, 47.3° (Epoch: 05 October)

Event Time Altitude Azimuth Distance (km) Brightness Sun altitude
Rises 09:17:03 0° 280° (W) 4,938 11.1 33.6°
Reaches altitude 10° 09:20:14 10° 281° (WNW) 3,951 10.7 34.1°
Maximum altitude 09:30:28 88° 12° (NNE) 1,679 9.9 35.8°
Drops below altitude 10° 09:40:31 10° 103° (ESE) 3,882 12.4 37.5°
Sets 09:43:37 0° 104° (ESE) 4,849 12.5 38.0°
